Tracking 28790 objects as of 19-Apr-2024
HD Live streaming from Space Station
objects crossing your sky now

SURCAL 150B

Track SURCAL 150B now!
10-day predictions
SURCAL 150B is classified as:


NORAD ID: 2909
Int'l Code: 1967-053J
Perigee: 638.3 km
Apogee: 644.8 km
Inclination: 69.9 °
Period: 97.4 minutes
Semi major axis: 7012 km
RCS: 0.061 m2 (small)
Launch date: May 31, 1967
Source: United States (US)
Launch site: AIR FORCE WESTERN TEST RANGE (AFWTR)
Your satellite tracking list
Your tracking list is empty




NASA's NSSDC Master Catalog

Two Line Element Set (TLE):
1 02909U 67053J   24109.91394958  .00033284  00000-0  45512-2 0  9994
2 02909  69.9399  95.9627 0004620 232.1937 127.8793 14.78389540962265
Source of the keplerian elements: AFSPC